Mora, MN

5:50 AM CDT on October 21, 2017 (GMT -0500)
Mora Municipal

Weather History for KJMR - November, 2013

Change the Weather History Date:

Tuesday, November 26, 2013

  Actual Average Record
Temperature  
Mean Temperature 19 °F -  
Max Temperature 26 °F 32 °F 57 °F (1998)
Min Temperature 12 °F 14 °F -16 °F (1977)
Degree Days  
Heating Degree Days 46    
Moisture  
Dew Point 7 °F    
Average Humidity 63    
Maximum Humidity 74    
Minimum Humidity 49    
Precipitation  
Precipitation 0.00 in - - ()
Sea Level Pressure  
Sea Level Pressure 30.23 in    
Wind  
Wind Speed 12 mph (NW)    
Max Wind Speed 22 mph    
Max Gust Speed 31 mph    
Visibility 9 miles    
Events Snow    
Averages and records for this station are not official NWS values.
T = Trace of Precipitation, MM = Missing Value Source: NWS Daily Summary

Daily Weather History Graph

Daily Weather History Graph

Search for Another Location

Airport or City:

Trip Planner

Search our weather history database for the weather conditions in past years. The results will help you decide how hot, cold, wet, or windy it might be!

Date:

Astronomy

Nov. 26, 2013 Rise Set
Actual Time 7:28 AM CST 4:32 PM CST
Civil Twilight 6:54 AM CST 5:05 PM CST
Nautical Twilight 6:17 AM CST 5:42 PM CST
Astronomical Twilight 5:42 AM CST 6:18 PM CST
Moon 12:11 AM CST (11/26) 12:58 PM CST (11/26)
Length of Visible Light 10h 10m
Length of Day
9h 03m
Last Quarter, 41% of the Moon is Illuminated
Nov 26
Last Quarter
Dec 2
New
Dec 9
First Quarter
Dec 17
Full
Dec 25
Last Quarter

Hourly Weather History & Observations

Time (CST) Temp. Windchill Dew Point Humidity Pressure Visibility Wind Dir Wind Speed Gust Speed Precip Events Conditions
12:14 AM 26.6 °F 16.2 °F 14.0 °F 59% 30.07 in 10.0 mi NW 11.5 mph - N/A Snow Light Snow
12:34 AM 26.6 °F 18.2 °F 15.8 °F 64% 30.07 in 10.0 mi WNW 8.1 mph 17.3 mph N/A   Overcast
12:54 AM 26.6 °F 16.2 °F 15.8 °F 64% 30.07 in 10.0 mi WNW 11.5 mph 17.3 mph N/A   Overcast
1:14 AM 26.6 °F 15.7 °F 15.8 °F 64% 30.07 in 10.0 mi West 12.7 mph 19.6 mph N/A   Overcast
1:34 AM 26.6 °F 17.5 °F 17.6 °F 69% 30.07 in 7.0 mi WNW 9.2 mph - N/A Snow Light Snow
1:54 AM 26.6 °F 20.0 °F 19.4 °F 74% 30.07 in 7.0 mi WNW 5.8 mph - N/A Snow Light Snow
2:14 AM 26.6 °F 18.2 °F 19.4 °F 74% 30.07 in 7.0 mi WNW 8.1 mph - N/A Snow Light Snow
2:34 AM 26.6 °F 19.1 °F 19.4 °F 74% 30.07 in 10.0 mi WNW 6.9 mph - N/A Snow Light Snow
2:54 AM 26.6 °F 19.1 °F 19.4 °F 74% 30.07 in 5.0 mi West 6.9 mph - N/A Snow Light Snow
3:14 AM 24.8 °F 12.9 °F 17.6 °F 74% 30.07 in 7.0 mi WNW 13.8 mph 19.6 mph N/A Snow Light Snow
3:34 AM 24.8 °F 12.4 °F 14.0 °F 64% 30.07 in 10.0 mi NW 15.0 mph - N/A   Mostly Cloudy
3:54 AM 23.0 °F 10.1 °F 12.2 °F 63% 30.07 in 10.0 mi WNW 15.0 mph 23.0 mph N/A   Scattered Clouds
4:14 AM 21.2 °F 9.5 °F 12.2 °F 68% 30.07 in 10.0 mi NW 11.5 mph 16.1 mph N/A   Clear
4:34 AM 21.2 °F 7.8 °F 10.4 °F 63% 30.08 in 10.0 mi NW 15.0 mph 20.7 mph N/A   Scattered Clouds
4:54 AM 21.2 °F 7.8 °F 10.4 °F 63% 30.09 in 10.0 mi NW 15.0 mph 21.9 mph N/A   Mostly Cloudy
5:14 AM 21.2 °F 7.8 °F 12.2 °F 68% 30.10 in 5.0 mi NW 15.0 mph 23.0 mph N/A Snow Light Snow
5:34 AM 19.4 °F 2.8 °F 6.8 °F 58% 30.12 in 10.0 mi NNW 21.9 mph 29.9 mph N/A   Overcast
5:54 AM 17.6 °F 1.3 °F 5.0 °F 58% 30.14 in 10.0 mi NNW 19.6 mph 27.6 mph N/A   Mostly Cloudy
6:14 AM 17.6 °F 3.2 °F 5.0 °F 58% 30.15 in 10.0 mi NNW 15.0 mph 31.1 mph N/A   Mostly Cloudy
6:34 AM 15.8 °F 0.9 °F 3.2 °F 58% 30.15 in 10.0 mi NNW 15.0 mph 26.5 mph N/A   Scattered Clouds
6:54 AM 14.0 °F -0.2 °F 3.2 °F 62% 30.16 in 10.0 mi NNW 12.7 mph 20.7 mph N/A   Clear
7:14 AM 14.0 °F 2.9 °F 3.2 °F 62% 30.17 in 10.0 mi NW 8.1 mph - N/A   Clear
7:34 AM 14.0 °F 0.5 °F 3.2 °F 62% 30.17 in 10.0 mi WNW 11.5 mph - N/A   Mostly Cloudy
7:54 AM 14.0 °F 1.2 °F 3.2 °F 62% 30.18 in 10.0 mi WNW 10.4 mph - N/A   Overcast
8:14 AM 15.8 °F 6.1 °F 5.0 °F 62% 30.19 in 10.0 mi WNW 6.9 mph - N/A   Overcast
8:34 AM 15.8 °F 5.1 °F 5.0 °F 62% 30.19 in 7.0 mi NW 8.1 mph - N/A   Overcast
8:54 AM 17.6 °F 5.7 °F 6.8 °F 63% 30.20 in 10.0 mi NW 10.4 mph - N/A   Overcast
9:14 AM 17.6 °F 7.3 °F 5.0 °F 58% 30.21 in 10.0 mi NW 8.1 mph - N/A   Overcast
9:34 AM 17.6 °F 2.2 °F 6.8 °F 63% 30.22 in 4.0 mi NNW 17.3 mph 26.5 mph N/A Snow Light Snow
9:54 AM 17.6 °F 3.7 °F 5.0 °F 58% 30.23 in 10.0 mi NNW 13.8 mph 26.5 mph N/A   Overcast
10:14 AM 17.6 °F 1.3 °F 3.2 °F 53% 30.23 in 10.0 mi NNW 19.6 mph 26.5 mph N/A   Overcast
10:34 AM 17.6 °F 1.7 °F 3.2 °F 53% 30.23 in 10.0 mi NNW 18.4 mph 26.5 mph N/A   Overcast
10:54 AM 17.6 °F 1.3 °F 3.2 °F 53% 30.24 in 10.0 mi NW 19.6 mph 25.3 mph N/A   Overcast
11:14 AM 17.6 °F 1.3 °F 3.2 °F 53% 30.24 in 10.0 mi NNW 19.6 mph 24.2 mph N/A   Overcast
11:34 AM 19.4 °F 4.5 °F 3.2 °F 49% 30.24 in 10.0 mi NNW 17.3 mph 28.8 mph N/A   Overcast
11:54 AM 19.4 °F 4.1 °F 3.2 °F 49% 30.24 in 10.0 mi NNW 18.4 mph 27.6 mph N/A   Mostly Cloudy
12:14 PM 19.4 °F 6.0 °F 6.8 °F 58% 30.25 in 10.0 mi NNW 13.8 mph 21.9 mph N/A   Mostly Cloudy
12:34 PM 19.4 °F 4.1 °F 5.0 °F 54% 30.24 in 7.0 mi NW 18.4 mph 26.5 mph N/A   Mostly Cloudy
12:54 PM 17.6 °F 3.2 °F 5.0 °F 58% 30.24 in 10.0 mi NW 15.0 mph 20.7 mph N/A   Overcast
1:14 PM 17.6 °F 4.3 °F 6.8 °F 63% 30.25 in 4.0 mi NNW 12.7 mph 19.6 mph N/A Snow Light Snow
1:34 PM 17.6 °F 2.2 °F 5.0 °F 58% 30.24 in 10.0 mi NW 17.3 mph 24.2 mph N/A   Mostly Cloudy
1:54 PM 17.6 °F 2.2 °F 5.0 °F 58% 30.24 in 10.0 mi NNW 17.3 mph 21.9 mph N/A   Mostly Cloudy
2:14 PM 17.6 °F 4.3 °F 5.0 °F 58% 30.25 in 10.0 mi NNW 12.7 mph 18.4 mph N/A   Scattered Clouds
2:34 PM 17.6 °F 4.3 °F 5.0 °F 58% 30.25 in 10.0 mi NNW 12.7 mph 19.6 mph N/A   Mostly Cloudy
2:54 PM 17.6 °F 5.7 °F 3.2 °F 53% 30.25 in 10.0 mi NNW 10.4 mph 18.4 mph N/A   Overcast
3:14 PM 17.6 °F 3.7 °F 5.0 °F 58% 30.26 in 10.0 mi NNW 13.8 mph 19.6 mph N/A   Overcast
3:34 PM 17.6 °F 6.4 °F 5.0 °F 58% 30.27 in 10.0 mi North 9.2 mph 21.9 mph N/A   Mostly Cloudy
3:54 PM 17.6 °F 3.7 °F 5.0 °F 58% 30.27 in 10.0 mi NNW 13.8 mph 18.4 mph N/A   Mostly Cloudy
4:14 PM 17.6 °F 6.4 °F 5.0 °F 58% 30.28 in 10.0 mi NNW 9.2 mph - N/A   Mostly Cloudy
4:34 PM 17.6 °F 7.3 °F 5.0 °F 58% 30.29 in 10.0 mi North 8.1 mph - N/A   Overcast
4:54 PM 17.6 °F 8.2 °F 5.0 °F 58% 30.31 in 10.0 mi NNW 6.9 mph - N/A   Overcast
5:14 PM 17.6 °F 8.2 °F 5.0 °F 58% 30.31 in 10.0 mi North 6.9 mph 19.6 mph N/A   Overcast
5:34 PM 17.6 °F 7.3 °F 5.0 °F 58% 30.32 in 10.0 mi North 8.1 mph - N/A   Mostly Cloudy
5:54 PM 15.8 °F 3.4 °F 5.0 °F 62% 30.32 in 10.0 mi North 10.4 mph 18.4 mph N/A   Clear
6:14 PM 14.0 °F 2.0 °F 3.2 °F 62% 30.33 in 10.0 mi North 9.2 mph - N/A   Clear
6:34 PM 14.0 °F 2.0 °F 3.2 °F 62% 30.34 in 10.0 mi North 9.2 mph - N/A   Clear
6:54 PM 14.0 °F 2.9 °F 5.0 °F 67% 30.34 in 10.0 mi NNW 8.1 mph - N/A   Clear
7:14 PM 14.0 °F 2.0 °F 5.0 °F 67% 30.34 in 10.0 mi NNW 9.2 mph - N/A   Clear
7:34 PM 14.0 °F -0.2 °F 5.0 °F 67% 30.35 in 10.0 mi NNW 12.7 mph 16.1 mph N/A   Clear
7:54 PM 14.0 °F 2.9 °F 5.0 °F 67% 30.35 in 10.0 mi NNW 8.1 mph - N/A   Clear
8:14 PM 14.0 °F 3.9 °F 5.0 °F 67% 30.35 in 10.0 mi NNW 6.9 mph - N/A   Clear
8:34 PM 14.0 °F 0.5 °F 5.0 °F 67% 30.35 in 10.0 mi NNW 11.5 mph - N/A   Clear
8:54 PM 14.0 °F 0.5 °F 5.0 °F 67% 30.35 in 10.0 mi NNW 11.5 mph 16.1 mph N/A   Clear
9:14 PM 12.2 °F -0.2 °F 5.0 °F 73% 30.35 in 10.0 mi NNW 9.2 mph - N/A   Clear
9:34 PM 12.2 °F 1.7 °F 3.2 °F 67% 30.36 in 10.0 mi NNW 6.9 mph - N/A   Clear
9:54 PM 12.2 °F 1.7 °F 5.0 °F 73% 30.35 in 10.0 mi NNW 6.9 mph - N/A   Clear
10:14 PM 12.2 °F -0.2 °F 5.0 °F 73% 30.35 in 10.0 mi NNW 9.2 mph - N/A   Clear
10:34 PM 12.2 °F 2.9 °F 5.0 °F 73% 30.36 in 10.0 mi North 5.8 mph - N/A   Clear
10:54 PM 12.2 °F 1.7 °F 5.0 °F 73% 30.36 in 10.0 mi NNW 6.9 mph - N/A   Clear
11:14 PM 12.2 °F -1.0 °F 5.0 °F 73% 30.36 in 10.0 mi NNW 10.4 mph - N/A   Clear
11:34 PM 12.2 °F 6.1 °F 5.0 °F 73% 30.37 in 10.0 mi North 3.5 mph - N/A   Clear
11:54 PM 12.2 °F 4.3 °F 5.0 °F 73% 30.37 in 10.0 mi NNW 4.6 mph - N/A   Clear